FW4334 Weather Reports


time (UTC)temp
C
wind
direction
speed
KPH
gust
KPH
rain 1hr
cm
rain 24hr
cm
rain mn
cm
humidity
%
barometer
mb
20260506222052 32 206 1.6 4.8 0.00 0.00 0.00 47 1013.8
20260506221604 33 203 1.6 11.3 0.00 0.00 0.00 48 1013.8
20260506221049 33 195 1.6 6.4 0.00 0.00 0.00 48 1013.7
20260506220549 33 196 0.0 6.4 0.00 0.00 0.00 48 1013.7
20260506220049 33 196 1.6 6.4 0.00 0.00 0.00 47 1013.6
20260506215548 33 209 1.6 11.3 0.00 0.00 0.00 48 1013.6
20260506215051 33 190 6.4 11.3 0.00 0.00 0.00 46 1013.6
20260506214553 33 191 1.6 6.4 0.00 0.00 0.00 47 1013.7
20260506214048 33 166 1.6 12.9 0.00 0.00 0.00 47 1013.8
20260506213546 33 209 3.2 12.9 0.00 0.00 0.00 49 1013.8
20260506213047 33 184 1.6 6.4 0.00 0.00 0.00 48 1013.9
20260506212546 33 144 0.0 6.4 0.00 0.00 0.00 49 1013.9
20260506212045 33 148 1.6 9.7 0.00 0.00 0.00 47 1013.9
20260506211545 33 205 3.2 8.0 0.00 0.00 0.00 48 1014.0
20260506211047 33 191 1.6 8.0 0.00 0.00 0.00 48 1014.1
20260506210544 33 207 3.2 12.9 0.00 0.00 0.00 48 1014.0
20260506210053 33 211 6.4 12.9 0.00 0.00 0.00 48 1014.1
20260506205549 33 268 3.2 8.0 0.00 0.00 0.00 49 1014.1
20260506205042 33 184 1.6 4.8 0.00 0.00 0.00 48 1014.1
20260506204546 33 125 1.6 12.9 0.00 0.00 0.00 47 1014.1
20260506204041 33 224 3.2 12.9 0.00 0.00 0.00 47 1014.3
20260506203540 33 204 1.6 8.0 0.00 0.00 0.00 47 1014.3
20260506203041 33 290 3.2 9.7 0.00 0.00 0.00 46 1014.2
20260506202538 33 214 1.6 6.4 0.00 0.00 0.00 48 1014.3
20260506202037 33 152 1.6 4.8 0.00 0.00 0.00 49 1014.4
20260506201536 32 273 0.0 4.8 0.00 0.00 0.00 46 1014.6
20260506201035 32 195 0.0 8.0 0.00 0.00 0.00 48 1014.6
20260506200537 32 251 3.2 9.7 0.00 0.00 0.00 47 1014.7
20260506200035 32 163 3.2 9.7 0.00 0.00 0.00 48 1014.7
20260506195533 32 213 4.8 9.7 0.00 0.00 0.00 47 1014.8
20260506195033 32 218 3.2 11.3 0.00 0.00 0.00 48 1015.0
20260506194532 32 196 3.2 11.3 0.00 0.00 0.00 49 1015.0
20260506194031 33 269 3.2 9.7 0.00 0.00 0.00 47 1015.1
20260506193531 33 209 3.2 8.0 0.00 0.00 0.00 49 1015.2
20260506193037 33 200 1.6 8.0 0.00 0.00 0.00 47 1015.2
20260506192532 33 238 1.6 6.4 0.00 0.00 0.00 48 1015.2
20260506192029 32 269 0.0 6.4 0.00 0.00 0.00 49 1015.2
20260506191529 32 314 1.6 9.7 0.00 0.00 0.00 48 1015.3
20260506191028 32 269 3.2 11.3 0.00 0.00 0.00 49 1015.5
20260506190530 32 213 3.2 11.3 0.00 0.00 0.00 49 1015.4
20260506190030 33 234 1.6 6.4 0.00 0.00 0.00 49 1015.6
20260506185525 32 136 1.6 12.9 0.00 0.00 0.00 49 1015.5
20260506185025 32 196 6.4 12.9 0.00 0.00 0.00 48 1015.5
20260506184534 32 179 1.6 14.5 0.00 0.00 0.00 48 1015.6
20260506184024 32 249 4.8 14.5 0.00 0.00 0.00 49 1015.8
20260506183523 32 261 1.6 9.7 0.00 0.00 0.00 50 1015.7
20260506183021 32 196 3.2 9.7 0.00 0.00 0.00 50 1015.8
20260506182520 32 337 0.0 9.7 0.00 0.00 0.00 50 1015.8
20260506182020 32 286 3.2 12.9 0.00 0.00 0.00 50 1016.1
20260506181531 32 267 3.2 12.9 0.00 0.00 0.00 50 1016.2
20260506181021 32 248 3.2 9.7 0.00 0.00 0.00 51 1016.2
20260506180519 31 261 3.2 9.7 0.00 0.00 0.00 52 1016.3
20260506180016 31 240 4.8 9.7 0.00 0.00 0.00 53 1016.3
20260506175516 31 122 0.0 6.4 0.00 0.00 0.00 53 1016.3
20260506175014 31 123 1.6 8.0 0.00 0.00 0.00 53 1016.4
20260506174514 31 138 1.6 8.0 0.00 0.00 0.00 54 1016.5
20260506174015 31 284 1.6 11.3 0.00 0.00 0.00 52 1016.4
20260506173515 31 182 4.8 11.3 0.00 0.00 0.00 55 1016.6
20260506173012 31 168 0.0 6.4 0.00 0.00 0.00 57 1016.6
20260506172512 31 212 1.6 6.4 0.00 0.00 0.00 57 1016.7
20260506172011 30 274 1.6 8.0 0.00 0.00 0.00 57 1016.7
20260506171508 30 196 1.6 8.0 0.00 0.00 0.00 56 1016.7
20260506171011 30 212 1.6 9.7 0.00 0.00 0.00 58 1016.7
20260506170506 30 227 3.2 12.9 0.00 0.00 0.00 57 1016.8
20260506170005 30 182 3.2 12.9 0.00 0.00 0.00 59 1016.9
20260506165505 30 284 3.2 11.3 0.00 0.00 0.00 59 1017.0
20260506165004 30 183 3.2 9.7 0.00 0.00 0.00 59 1017.1
20260506164515 29 253 1.6 12.9 0.00 0.00 0.00 60 1017.0
20260506164003 30 198 3.2 11.3 0.00 0.00 0.00 60 1017.1
20260506163501 29 223 1.6 11.3 0.00 0.00 0.00 61 1017.1
20260506163111 29 157 3.2 12.9 0.00 0.00 0.00 61 1017.2
20260506162600 29 154 3.2 12.9 0.00 0.00 0.00 62 1017.3
20260506162059 28 146 3.2 14.5 0.00 0.00 0.00 62 1017.3
20260506161559 28 279 4.8 14.5 0.00 0.00 0.00 62 1017.3
20260506161100 28 171 3.2 11.3 0.00 0.00 0.00 63 1017.2
20260506160556 28 201 4.8 11.3 0.00 0.00 0.00 63 1017.3
20260506160107 28 151 4.8 12.9 0.00 0.00 0.00 65 1017.5
20260506155553 28 266 4.8 16.1 0.00 0.00 0.00 64 1017.4
20260506155053 28 216 4.8 16.1 0.00 0.00 0.00 65 1017.3
20260506154555 28 273 6.4 14.5 0.00 0.00 0.00 66 1017.5
20260506154051 28 182 3.2 11.3 0.00 0.00 0.00 66 1017.3
20260506153556 27 278 4.8 11.3 0.00 0.00 0.00 66 1017.5
20260506153049 27 223 3.2 16.1 0.00 0.00 0.00 67 1017.5
20260506152548 27 195 4.8 16.1 0.00 0.00 0.00 68 1017.4
20260506152048 27 231 3.2 9.7 0.00 0.00 0.00 69 1017.4
20260506151545 27 251 3.2 12.9 0.00 0.00 0.00 70 1017.3
20260506151045 27 264 3.2 12.9 0.00 0.00 0.00 70 1017.3
20260506150544 26 265 3.2 16.1 0.00 0.00 0.00 70 1017.3
20260506150053 26 226 1.6 12.9 0.00 0.00 0.00 71 1017.4
20260506145542 26 197 0.0 8.0 0.00 0.00 0.00 73 1017.2
20260506145040 26 171 1.6 9.7 0.00 0.00 0.00 73 1017.2
20260506144540 26 125 3.2 6.4 0.00 0.00 0.00 74 1017.1
20260506144038 26 157 1.6 9.7 0.00 0.00 0.00 74 1017.1
20260506143538 25 175 1.6 11.3 0.00 0.00 0.00 74 1017.1
20260506143039 25 184 3.2 9.7 0.00 0.00 0.00 75 1017.1
20260506142537 25 120 1.6 11.3 0.00 0.00 0.00 75 1017.2
20260506142035 25 129 3.2 11.3 0.00 0.00 0.00 75 1017.1
20260506141541 25 198 3.2 6.4 0.00 0.00 0.00 76 1017.2
20260506141032 25 187 0.0 8.0 0.00 0.00 0.00 77 1017.2
20260506140533 24 132 1.6 14.5 0.00 0.00 0.00 77 1017.1
20260506140029 24 215 4.8 14.5 0.00 0.00 0.00 77 1017.1
20260506135527 24 200 4.8 12.9 0.00 0.00 0.00 77 1017.1
20260506135025 23 225 1.6 12.9 0.00 0.00 0.00 78 1017.1
20260506134524 23 188 4.8 16.1 0.00 0.00 0.00 79 1017.2
20260506134023 23 192 3.2 16.1 0.00 0.00 0.00 78 1017.3
20260506133523 23 182 4.8 12.9 0.00 0.00 0.00 79 1017.1
20260506133020 23 140 1.6 4.8 0.00 0.00 0.00 80 1017.3
20260506132521 22 130 1.6 16.1 0.00 0.00 0.00 81 1017.1
20260506132018 22 213 1.6 16.1 0.00 0.00 0.00 81 1017.2
20260506131518 22 197 4.8 12.9 0.00 0.00 0.00 81 1017.2
20260506131015 22 192 1.6 8.0 0.00 0.00 0.00 83 1017.1
20260506130513 21 229 0.0 8.0 0.00 0.00 0.00 84 1017.0
20260506130013 21 360 1.6 8.0 0.00 0.00 0.00 84 1017.0
20260506125514 20 360 0.0 6.4 0.00 0.00 0.00 85 1017.0
20260506125009 20 360 1.6 4.8 0.00 0.00 0.00 86 1017.0
20260506124508 19 360 0.0 0.0 0.00 0.00 0.00 87 1016.8
20260506124006 19 360 0.0 0.0 0.00 0.00 0.00 88 1016.9
20260506123505 18 360 0.0 0.0 0.00 0.00 0.00 89 1016.8
20260506123004 18 360 0.0 0.0 0.00 0.00 0.00 90 1016.7
20260506122503 17 360 0.0 0.0 0.00 0.00 0.00 90 1016.6
20260506122005 17 360 0.0 0.0 0.00 0.00 0.00 91 1016.6
20260506121501 17 360 0.0 0.0 0.00 0.00 0.00 92 1016.5
20260506121001 16 360 0.0 0.0 0.00 0.00 0.00 92 1016.5
20260506120502 16 360 0.0 0.0 0.00 0.00 0.00 93 1016.5
20260506120001 16 360 0.0 0.0 0.00 0.00 0.00 93 1016.5
20260506115603 16 360 0.0 0.0 0.00 0.00 0.00 93 1016.5
20260506115100 16 360 0.0 0.0 0.00 0.00 0.00 93 1016.6
20260506114600 16 360 0.0 0.0 0.00 0.00 0.00 92 1016.5
20260506114103 16 360 0.0 0.0 0.00 0.00 0.00 92 1016.3
20260506113600 16 360 0.0 0.0 0.00 0.00 0.00 92 1016.4
20260506113100 15 360 0.0 0.0 0.00 0.00 0.00 92 1016.3
20260506112600 15 360 0.0 0.0 0.00 0.00 0.00 92 1016.3
20260506112101 15 360 0.0 0.0 0.00 0.00 0.00 92 1016.3
20260506111559 15 360 0.0 0.0 0.00 0.00 0.00 92 1016.4
20260506111059 15 360 0.0 0.0 0.00 0.00 0.00 92 1016.4
20260506110558 15 119 0.0 0.0 0.00 0.00 0.00 92 1016.3
20260506110113 15 119 0.0 0.0 0.00 0.00 0.00 92 1016.2
20260506105558 15 119 0.0 0.0 0.00 0.00 0.00 92 1016.2
20260506105058 15 119 0.0 0.0 0.00 0.00 0.00 92 1016.2
20260506104613 15 119 0.0 0.0 0.00 0.00 0.00 91 1016.1
20260506104057 15 119 0.0 0.0 0.00 0.00 0.00 91 1015.9
20260506103557 15 119 0.0 0.0 0.00 0.00 0.00 91 1016.0
20260506103057 15 119 0.0 0.0 0.00 0.00 0.00 91 1016.0
20260506102557 15 119 0.0 0.0 0.00 0.00 0.00 91 1016.0
20260506102059 15 119 0.0 0.0 0.00 0.00 0.00 91 1015.8
20260506101557 15 119 0.0 0.0 0.00 0.00 0.00 91 1015.9
20260506101057 15 119 0.0 0.0 0.00 0.00 0.00 91 1015.9
20260506100557 15 119 0.0 0.0 0.00 0.00 0.00 91 1016.0
20260506100110 15 119 0.0 0.0 0.00 0.00 0.00 91 1016.0
20260506095555 15 119 0.0 0.0 0.00 0.00 0.00 91 1016.1
20260506095055 15 119 0.0 0.0 0.00 0.00 0.00 91 1016.0
20260506094601 15 119 0.0 0.0 0.00 0.00 0.00 91 1016.1
20260506094054 15 119 0.0 0.0 0.00 0.00 0.00 91 1016.1
20260506093553 15 119 0.0 0.0 0.00 0.00 0.00 91 1016.0
20260506093054 15 119 0.0 0.0 0.00 0.00 0.00 91 1016.0
20260506092554 15 119 0.0 0.0 0.00 0.00 0.00 91 1015.8
20260506092054 15 119 0.0 0.0 0.00 0.00 0.00 91 1015.7
20260506091553 15 119 0.0 0.0 0.00 0.00 0.00 91 1015.7
20260506091053 15 119 0.0 0.0 0.00 0.00 0.00 91 1015.5
20260506090552 15 119 0.0 0.0 0.00 0.00 0.00 91 1015.6
20260506090053 15 119 0.0 0.0 0.00 0.00 0.00 91 1015.6
20260506085552 15 119 0.0 0.0 0.00 0.00 0.00 91 1015.8
20260506085052 15 119 0.0 0.0 0.00 0.00 0.00 91 1015.7
20260506084617 15 119 0.0 0.0 0.00 0.00 0.00 91 1015.8
20260506084051 15 119 0.0 0.0 0.00 0.00 0.00 91 1015.7
20260506083551 15 119 0.0 0.0 0.00 0.00 0.00 91 1015.8
20260506083051 15 119 0.0 0.0 0.00 0.00 0.00 91 1015.7
20260506082553 15 119 0.0 0.0 0.00 0.00 0.00 91 1015.7
20260506082049 15 119 0.0 0.0 0.00 0.00 0.00 91 1015.7
20260506081556 15 119 0.0 0.0 0.00 0.00 0.00 91 1015.7
20260506081049 15 119 0.0 0.0 0.00 0.00 0.00 91 1015.7
20260506080552 15 119 0.0 0.0 0.00 0.00 0.00 91 1015.8
20260506073047 16 119 0.0 0.0 0.00 0.00 0.00 90 1015.3
20260506072546 16 119 0.0 0.0 0.00 0.00 0.00 90 1015.4
20260506072046 16 360 0.0 0.0 0.00 0.00 0.00 90 1015.6
20260506071546 16 360 0.0 0.0 0.00 0.00 0.00 90 1015.7
20260506071045 16 360 0.0 0.0 0.00 0.00 0.00 90 1015.6
20260506070543 16 360 0.0 0.0 0.00 0.00 0.00 90 1015.8
20260506062040 16 128 0.0 0.0 0.00 0.00 0.00 89 1016.0
20260506061539 16 360 0.0 0.0 0.00 0.00 0.00 89 1016.1
20260506061039 16 134 0.0 0.0 0.00 0.00 0.00 89 1016.2
20260506060537 16 147 0.0 0.0 0.00 0.00 0.00 89 1016.2
20260506051031 16 360 0.0 0.0 0.00 0.00 0.00 88 1016.6
20260506050530 16 360 0.0 0.0 0.00 0.00 0.00 87 1016.5
20260506045027 17 360 0.0 0.0 0.00 0.00 0.00 87 1016.9
20260506044535 17 128 0.0 0.0 0.00 0.00 0.00 87 1016.9
20260506044028 17 360 0.0 0.0 0.00 0.00 0.00 86 1017.0
20260506043531 17 360 0.0 0.0 0.00 0.00 0.00 86 1017.1
20260506043025 17 360 0.0 0.0 0.00 0.00 0.00 86 1017.0
20260506042525 17 360 0.0 0.0 0.00 0.00 0.00 86 1017.0
20260506042024 17 360 0.0 0.0 0.00 0.00 0.00 85 1017.0
20260506041522 17 360 0.0 0.0 0.00 0.00 0.00 85 1017.0
20260506041021 17 360 0.0 0.0 0.00 0.00 0.00 85 1017.1
20260506040520 17 360 0.0 0.0 0.00 0.00 0.00 84 1017.2
20260506040019 17 360 0.0 0.0 0.00 0.00 0.00 84 1017.2
20260506035520 17 360 0.0 0.0 0.00 0.00 0.00 84 1017.2
20260506035019 17 360 0.0 0.0 0.00 0.00 0.00 83 1017.2
20260506034521 17 360 0.0 0.0 0.00 0.00 0.00 83 1017.1
20260506034019 18 360 0.0 0.0 0.00 0.00 0.00 82 1017.0
20260506033518 18 360 0.0 0.0 0.00 0.00 0.00 82 1016.9
20260506033018 18 360 0.0 0.0 0.00 0.00 0.00 82 1016.9
20260506032518 18 360 0.0 0.0 0.00 0.00 0.00 82 1016.9
20260506032019 18 360 0.0 0.0 0.00 0.00 0.00 81 1016.7
20260506031518 18 360 0.0 0.0 0.00 0.00 0.00 81 1016.7
20260506031017 18 140 0.0 0.0 0.00 0.00 0.00 80 1016.7
20260506030517 18 360 0.0 0.0 0.00 0.00 0.00 80 1016.6
20260506030019 18 360 0.0 0.0 0.00 0.00 0.00 79 1016.6
20260506025517 19 360 0.0 0.0 0.00 0.00 0.00 79 1016.6
20260506025017 19 360 0.0 0.0 0.00 0.00 0.00 78 1016.6
20260506024517 19 119 0.0 0.0 0.00 0.00 0.00 78 1016.6
20260506024017 19 120 0.0 0.0 0.00 0.00 0.00 78 1016.7
20260506023517 20 360 0.0 0.0 0.00 0.00 0.00 77 1016.7
20260506023029 20 360 0.0 0.0 0.00 0.00 0.00 77 1016.7
20260506022516 20 360 0.0 0.0 0.00 0.00 0.00 76 1016.5
20260506022026 20 120 0.0 0.0 0.00 0.00 0.00 75 1016.4
20260506021530 20 120 0.0 0.0 0.00 0.00 0.00 75 1016.3
20260506021021 20 119 0.0 0.0 0.00 0.00 0.00 74 1016.4
20260506020515 20 360 0.0 0.0 0.00 0.00 0.00 74 1016.2
20260506020016 20 360 0.0 0.0 0.00 0.00 0.00 74 1016.3
20260506015515 21 120 0.0 0.0 0.00 0.00 0.00 73 1016.2
20260506015015 21 121 0.0 0.0 0.00 0.00 0.00 73 1016.1
20260506014518 21 120 0.0 0.0 0.00 0.00 0.00 72 1016.1
20260506014014 21 360 0.0 0.0 0.00 0.00 0.00 72 1016.1
20260506013516 21 120 0.0 0.0 0.00 0.00 0.00 72 1016.0
20260506013018 21 120 0.0 0.0 0.00 0.00 0.00 72 1015.9
20260506012514 21 360 0.0 0.0 0.00 0.00 0.00 72 1015.9
20260506012014 21 119 0.0 0.0 0.00 0.00 0.00 72 1015.9
20260506011514 21 119 0.0 0.0 0.00 0.00 0.00 71 1015.8
20260506011012 21 360 0.0 0.0 0.00 0.00 0.00 70 1015.8
20260506010513 22 117 0.0 0.0 0.00 0.00 0.00 70 1015.7
20260506010014 22 117 0.0 3.2 0.00 0.00 0.00 69 1015.7
20260506005511 22 127 0.0 3.2 0.00 0.00 0.00 68 1015.8
20260506005013 22 125 0.0 3.2 0.00 0.00 0.00 68 1015.7
20260506004512 22 125 0.0 4.8 0.00 0.00 0.00 67 1015.5
20260506004013 22 121 1.6 4.8 0.00 0.00 0.00 66 1015.5
20260506003515 22 116 0.0 3.2 0.00 0.00 0.00 66 1015.5
20260506003013 22 121 0.0 3.2 0.00 0.00 0.00 65 1015.5
20260506002511 23 119 0.0 4.8 0.00 0.00 0.00 66 1015.5
20260506002009 23 121 0.0 4.8 0.00 0.00 0.00 64 1015.5
20260506001509 23 360 0.0 4.8 0.00 0.00 0.00 64 1015.5
20260506001009 23 111 0.0 4.8 0.00 0.00 0.00 63 1015.3
20260506000509 23 108 1.6 4.8 0.00 0.00 0.00 62 1015.3
20260506000008 23 115 1.6 11.3 0.00 0.00 0.00 62 1015.1
20260505235511 23 117 3.2 11.3 0.00 0.00 0.00 61 1015.2
20260505235008 23 118 1.6 9.7 0.00 0.00 0.00 60 1015.2
20260505234508 23 126 1.6 6.4 0.00 0.00 0.00 60 1015.3
20260505234008 24 119 1.6 8.0 0.00 0.00 0.00 59 1015.3
20260505233510 24 123 1.6 8.0 0.00 0.00 0.00 58 1015.1
20260505233007 24 123 1.6 9.7 0.00 0.00 0.00 57 1015.1
20260505232507 24 112 1.6 6.4 0.00 0.00 0.00 57 1015.2
20260505232010 24 120 1.6 14.5 0.00 0.00 0.00 57 1015.2
20260505231509 25 110 3.2 14.5 0.00 0.00 0.00 56 1015.1
20260505231011 25 123 6.4 14.5 0.00 0.00 0.00 56 1015.2
20260505230506 25 128 6.4 14.5 0.00 0.00 0.00 56 1015.2
20260505230010 25 123 1.6 14.5 0.00 0.00 0.00 56 1015.2
20260505225506 25 114 4.8 14.5 0.00 0.00 0.00 56 1015.1
20260505225006 25 118 3.2 11.3 0.00 0.00 0.00 56 1015.2
20260505224510 25 127 1.6 11.3 0.00 0.00 0.00 55 1015.1
20260505224004 25 96 3.2 11.3 0.00 0.00 0.00 55 1015.0
20260505223504 25 118 3.2 14.5 0.00 0.00 0.00 55 1015.0
20260505223005 25 115 1.6 11.3 0.00 0.00 0.00 55 1015.0
20260505222507 25 123 4.8 11.3 0.00 0.00 0.00 56 1015.0